Вернуться в каталог

COSMOS 2251 DEB

АктивенLEO
NORAD 35703·DEBRIS·🇷🇺 Russia

Запущен Jun 16, 1993 с Plesetsk Cosmodrome

Loading…

Ближайшие Пролёты (ближайшие 24 часа)

TLE

УстаревающийSource: Space-Track

Эпоха: Sep 12, 2026, 04:06 UTC

1 35703U 93036APY 26255.17088995  .00003647  00000-0  33193-3 0  9998
2 35703  74.0392 213.5735 0063338 212.8560 146.8681 14.94060658706952

Отслеживайте COSMOS 2251 DEB в реальном времени с AllMySat

Download on the App Store